Weather History for KTRI - March, 2014

Change the Weather History Date:

Sunday, March 16, 2014

  Actual Average Record
Temperature  
Mean Temperature 44 °F 47 °F  
Max Temperature 50 °F 59 °F 84 °F (1942)
Min Temperature 38 °F 34 °F 14 °F (1949)
Degree Days  
Heating Degree Days 21 18  
Month to date heating degree days 323 325  
Since 1 July heating degree days 3818 3707  
Cooling Degree Days 0 0  
Month to date cooling degree days 0 0  
Year to date cooling degree days 0 0  
Moisture  
Dew Point 36 °F    
Average Humidity 72    
Maximum Humidity 86    
Minimum Humidity 57    
Precipitation  
Precipitation 0.29 in 0.11 in 2.78 in (1973)
Month to date precipitation 1.49 1.75  
Year to date precipitation 6.55 8.57  
Snow  
Snow 0.00 in 0.10 in - ()
Month to date snowfall 0.2 0.9  
Since 1 July snowfall 12.5 11.7  
Snow Depth 0.00 in    
Sea Level Pressure  
Sea Level Pressure 29.84 in    
Wind  
Wind Speed 5 mph (NE)    
Max Wind Speed 14 mph    
Max Gust Speed 21 mph    
Visibility 9 miles    
Events Rain    
T = Trace of Precipitation, MM = Missing Value Source: NWS Daily Summary

Daily Weather History Graph

Daily Weather History Graph

Search for Another Location

Airport or City:

Trip Planner

Search our weather history database for the weather conditions in past years. The results will help you decide how hot, cold, wet, or windy it might be!

Date:

Astronomy

Mar. 16, 2014 Rise Set
Actual Time 7:39 AM EDT 7:37 PM EDT
Civil Twilight 7:13 AM EDT 8:03 PM EDT
Nautical Twilight 6:43 AM EDT 8:33 PM EDT
Astronomical Twilight 6:13 AM EDT 9:03 PM EDT
Moon 7:52 PM EDT (3/16) 7:22 AM EDT (3/16)
Length of Visible Light 12h 50m
Length of Day
11h 58m
Full, 100% of the Moon is Illuminated
Mar 16
Full
Mar 16
Full
Mar 23
Last Quarter
Mar 30
New
Apr 7
First Quarter

Hourly Weather History & Observations

Time (EDT) Temp. Windchill Dew Point Humidity Pressure Visibility Wind Dir Wind Speed Gust Speed Precip Events Conditions
12:53 AM 42.1 °F - 30.9 °F 65% 29.99 in 10.0 mi Calm Calm - N/A   Scattered Clouds
1:53 AM 41.0 °F - 30.9 °F 67% 29.99 in 10.0 mi Calm Calm - N/A   Scattered Clouds
2:53 AM 39.9 °F - 30.9 °F 70% 29.98 in 10.0 mi Calm Calm - N/A   Scattered Clouds
3:53 AM 39.9 °F - 30.9 °F 70% 29.95 in 10.0 mi Calm Calm - N/A   Mostly Cloudy
4:53 AM 42.1 °F 40.2 °F 30.9 °F 65% 29.93 in 10.0 mi NNE 3.5 mph - N/A   Mostly Cloudy
5:53 AM 42.1 °F - 32.0 °F 67% 29.91 in 10.0 mi Calm Calm - N/A   Mostly Cloudy
6:53 AM 43.0 °F - 28.9 °F 58% 29.90 in 10.0 mi Calm Calm - N/A   Mostly Cloudy
7:53 AM 43.0 °F - 32.0 °F 65% 29.89 in 10.0 mi Calm Calm - N/A   Overcast
8:53 AM 46.0 °F 43.9 °F 33.1 °F 61% 29.88 in 10.0 mi NE 4.6 mph - N/A   Overcast
9:53 AM 46.9 °F - 35.1 °F 63% 29.90 in 10.0 mi WSW 3.5 mph - 0.00 in Rain Light Rain
10:53 AM 50.0 °F - 39.0 °F 66% 29.94 in 6.0 mi ESE 6.9 mph - 0.02 in Rain Light Rain
11:53 AM 46.9 °F - 41.0 °F 80% 29.94 in 5.0 mi East 3.5 mph - 0.07 in Rain Light Rain
12:53 PM 46.9 °F - 42.1 °F 83% 29.88 in 5.0 mi ENE 8.1 mph - 0.12 in Rain Light Rain
1:53 PM 48.9 °F - 43.0 °F 80% 29.80 in 10.0 mi ENE 11.5 mph 20.7 mph 0.03 in   Overcast
2:53 PM 50.0 °F - 42.1 °F 74% 29.76 in 10.0 mi NNE 8.1 mph - N/A   Overcast
3:53 PM 50.0 °F - 41.0 °F 71% 29.73 in 8.0 mi NE 10.4 mph 17.3 mph 0.00 in Rain Light Rain
4:53 PM 48.0 °F - 41.0 °F 77% 29.72 in 10.0 mi NNE 6.9 mph - 0.00 in   Overcast
5:53 PM 46.0 °F 42.5 °F 41.0 °F 83% 29.70 in 9.0 mi NE 6.9 mph - 0.01 in Rain Light Rain
6:53 PM 45.0 °F 40.6 °F 39.9 °F 82% 29.69 in 10.0 mi NE 8.1 mph - 0.01 in   Overcast
7:53 PM 44.1 °F 41.5 °F 39.9 °F 85% 29.70 in 10.0 mi NNE 4.6 mph - N/A   Overcast
8:53 PM 44.1 °F 39.0 °F 37.0 °F 76% 29.70 in 10.0 mi ENE 9.2 mph - 0.00 in   Overcast
9:53 PM 43.0 °F 39.5 °F 37.0 °F 80% 29.73 in 9.0 mi NNE 5.8 mph - 0.00 in Rain Light Rain
10:53 PM 42.1 °F 39.2 °F 37.0 °F 82% 29.72 in 7.0 mi NE 4.6 mph - 0.02 in Rain Rain
11:53 PM 42.1 °F 38.4 °F 37.9 °F 85% 29.72 in 10.0 mi NE 5.8 mph - 0.01 in   Overcast